[[{"header":{"parameterUnit":"m.s-1","parameterCategory":1,"la1":30.2991,"la2":30.254,"lo1":-89.0895,"lo2":-89.0444,"dy":0.0017,"dx":0.0017,"nx":28,"ny":28,"refTime":"2024-02-14T03:00:00:Z","depth":0,"parameterNumber":2,"parameterNumberName":"U-component_of_WINDS"},"data":[0,0,0,0,0,0,0,0,0,0,0,0,0,0,0,0,0,0,0,0,0,0,0,0,0,0,0,0,0,0,0,0,0,0,0,0,0,0,0,0,0,0,0,0,0,0,0,0,0,0,0,0,0,0,0,0,0,0,-2.0765,-2.0764,0,-2.0718,-2.0717,-2.0717,-2.0618,-2.0616,-2.0614,-2.0612,-2.0567,-2.0567,-2.0568,0,0,0,0,0,0,0,0,0,0,0,0,0,-2.0773,-2.0774,-2.0765,-2.0764,-2.0763,-2.0718,-2.0717,-2.0717,-2.0618,-2.0616,-2.0613,-2.0611,-2.0567,-2.0567,-2.0568,0,0,0,0,0,0,0,0,0,0,0,0,0,-2.0753,-2.0774,-2.0765,-2.0709,-2.0703,-2.0718,-2.0717,-2.0716,-2.0619,-2.0616,-2.0613,-2.061,-2.0566,-2.0567,-2.0568,-2.0634,0,0,-2.0571,-2.0572,0,0,0,0,0,0,0,0,-2.0754,-2.0752,-2.0718,-2.0713,-2.0707,-2.067,-2.0703,-2.0689,-2.0619,-2.0651,-2.0612,-2.0608,-2.0604,-2.0602,-2.0599,-2.0632,-2.063,-2.0571,-2.0572,-2.0572,-2.0573,0,0,0,0,0,0,0,-2.0755,-2.0754,-2.0746,-2.0717,-2.0711,-2.0688,-2.0681,-2.07,-2.0645,-2.0648,-2.0641,-2.0636,-2.06,-2.0599,-2.0598,-2.063,-2.0571,-2.0572,-2.0573,-2.0573,-2.0717,-2.072,0,0,0,0,0,0,-2.0764,-2.0756,-2.0748,-2.0745,-2.0723,-2.069,-2.0683,-2.0685,-2.0644,-2.0635,-2.0639,-2.0632,-2.0599,-2.0597,-2.0596,-2.0672,-2.0572,-2.0573,-2.0574,-2.0714,-2.0718,-2.0721,0,0,0,0,0,0,-2.0765,-2.0765,-2.0749,-2.0748,-2.0744,-2.0693,-2.0696,-2.0686,-2.0684,-2.0637,-2.0628,-2.0647,-2.0596,-2.0594,-2.0626,-2.0669,-2.0574,-2.0575,-2.071,-2.0715,-2.072,-2.0824,0,0,0,0,0,0,-2.0766,-2.0765,-2.0789,-2.0749,-2.0745,-2.0779,-2.0699,-2.0687,-2.0686,-2.0676,-2.0643,-2.0634,-2.0594,-2.0625,-2.0627,-2.0669,-2.0575,-2.0706,-2.0712,-2.0718,-2.0817,-2.0832,-2.0845,0,0,0,0,0,-2.0766,-2.082,-2.079,-2.079,-2.0773,-2.0782,-2.0779,-2.0731,-2.0689,-2.0713,-2.0684,-2.0635,-2.0664,-2.0629,-2.063,-2.0673,-2.0703,-2.0711,-2.0718,-2.081,-2.0829,-2.0845,0,0,0,0,0,0,-2.0866,-2.0814,-2.078,-2.0823,-2.0808,-2.0765,-2.0794,-2.0752,-2.0749,-2.074,-2.068,-2.0674,-2.0714,-2.0696,-2.0658,-2.0736,-2.0676,-2.0684,-2.0746,-2.0764,-2.0778,-2.0781,-2.0576,0,0,0,0,0,-2.0893,-2.0904,-2.0858,-2.09,-2.0894,-2.0846,-2.0848,-2.0812,-2.0794,-2.0787,-2.076,-2.0745,-2.0751,-2.0756,-2.0759,-2.0814,-2.0807,-2.0844,-2.0859,-2.0871,-2.0878,-2.0909,-2.0925,-2.0745,-2.0745,-2.0745,0,0,-2.0949,-2.0922,-2.0932,-2.0919,-2.0903,-2.0917,-2.0841,-2.0858,-2.0868,-2.079,-2.0818,-2.0798,-2.0778,-2.0823,-2.0841,-2.0809,-2.0927,-2.088,-2.089,-2.0891,-2.0918,-2.0935,-2.095,-2.075,-2.0749,-2.0748,0,0,-2.1058,-2.1038,-2.1071,-2.1057,-2.1034,-2.1002,-2.101,-2.0975,-2.0958,-2.0986,-2.0928,-2.094,-2.0951,-2.094,-2.0936,-2.1044,-2.1,-2.1046,-2.1121,-2.1151,-2.1165,-2.1178,-2.1218,-2.1233,-2.1054,-2.1054,-2.1055,0,-2.113,-2.1147,-2.1094,-2.1116,-2.1113,-2.1043,-2.1078,-2.1067,-2.1046,-2.1047,-2.1012,-2.1026,-2.1007,-2.1049,-2.1076,-2.1074,-2.1083,-2.105,-2.1168,-2.1179,-2.119,-2.1228,-2.1243,-2.106,-2.106,-2.1059,-2.1058,0,-2.1239,-2.1252,-2.1283,-2.1264,-2.1265,-2.1293,-2.1246,-2.1253,-2.1218,-2.1191,-2.1221,-2.1197,-2.1194,-2.1202,-2.1167,-2.124,-2.1221,-2.1178,-2.1116,-2.1214,-2.1249,-2.1263,-2.1069,-2.1067,-2.1065,-2.1063,0,0,-2.1408,-2.1361,-2.1373,-2.1365,-2.1336,-2.1346,-2.1372,-2.137,-2.1378,-2.1367,-2.1389,-2.1401,-2.1362,-2.1357,-2.1321,-2.1348,-2.1438,-2.1301,-2.13,-2.1329,-2.1519,-2.1552,-2.157,-2.1408,-2.1411,-2.1413,-2.1521,0,-2.1511,-2.1552,-2.1506,-2.1557,-2.157,-2.1505,-2.1529,-2.1514,-2.149,-2.1499,-2.1472,-2.1482,-2.1428,-2.1425,-2.1449,-2.1422,-2.1475,-2.1413,-2.143,-2.1431,-2.1438,-2.1587,-2.1622,-2.1725,-2.1534,-2.1536,-2.1538,0,-2.1635,-2.1631,-2.1684,-2.1653,-2.1657,-2.1678,-2.1674,-2.1682,-2.1666,-2.1646,-2.1643,-2.16,-2.1626,-2.1566,-2.1602,-2.1561,-2.1566,-2.1554,-2.1557,-2.1557,-2.1491,-2.1593,-2.1756,-2.1772,-2.1558,-2.1556,-2.1555,0,-2.1755,-2.1762,-2.1795,-2.179,-2.1755,-2.1772,-2.1759,-2.1739,-2.1741,-2.1738,-2.1739,-2.1739,-2.1739,-2.1741,-2.17,-2.166,-2.1743,-2.1678,-2.1729,-2.173,-2.1749,-2.1749,-2.1917,-2.1751,-2.1751,-2.175,-2.175,0,-2.1875,-2.1911,-2.1849,-2.1869,-2.1908,-2.1856,-2.1896,-2.1876,-2.186,-2.1877,-2.1821,-2.1838,-2.1782,-2.1795,-2.1763,-2.1799,-2.18,-2.1786,-2.1778,-2.1792,-2.1794,-2.1794,-2.1786,-2.1754,-2.1754,-2.1753,-2.1752,0,-2.2016,-2.1975,-2.2007,-2.1972,-2.1964,-2.1995,-2.1965,-2.1984,-2.1956,-2.1979,-2.1981,-2.1939,-2.195,-2.191,-2.1915,-2.1894,-2.1948,-2.1927,-2.1953,-2.1947,-2.2,-2.1997,-2.2176,-2.2197,-2.2017,-2.2018,-2.202,0,-2.2095,-2.2121,-2.2089,-2.2096,-2.2085,-2.2097,-2.2099,-2.205,-2.2055,-2.204,-2.2061,-2.2068,-2.2071,-2.2094,-2.2064,-2.2069,-2.2048,-2.2111,-2.2049,-2.2063,-2.2051,-2.205,-2.2054,-2.2124,-2.2126,-2.2128,-2.2129,0,-2.2241,-2.222,-2.2225,-2.2224,-2.2229,-2.2226,-2.2219,-2.2228,-2.2176,-2.2185,-2.2196,-2.2198,-2.2204,-2.2213,-2.2212,-2.2199,-2.2157,-2.2149,-2.2162,-2.2177,-2.2192,-2.2186,-2.199,-2.2145,-2.2144,-2.2143,-2.2142,-2.2141,-2.2354,-2.2375,-2.2356,-2.2364,-2.2354,-2.235,-2.2366,-2.2342,-2.235,-2.235,-2.2321,-2.2339,-2.2325,-2.2318,-2.2311,-2.2325,-2.2296,-2.2314,-2.2318,-2.2323,-2.2333,-2.2189,-2.2325,-2.2324,-2.2324,-2.2323,-2.2323,0,-2.2498,-2.2483,-2.2491,-2.2484,-2.2492,-2.245,-2.2441,-2.2451,-2.2467,-2.2457,-2.2461,-2.2476,-2.2485,-2.2457,-2.2462,-2.248,-2.246,-2.2483,-2.2481,-2.248,-2.2358,-2.2347,-2.2498,-2.2498,-2.2498,-2.2498,-2.2498,-2.2498,-2.2574,-2.2608,-2.2586,-2.2615,-2.26,-2.2617,-2.2616,-2.2612,-2.2604,-2.2623,-2.263,-2.2611,-2.2595,-2.2599,-2.2606,-2.2598,-2.2603,-2.2633,-2.2618,-2.2505,-2.2488,-2.2472,-2.2462,-2.2634,-2.2634,-2.2739,-2.274,-2.2741]},{"header":{"parameterUnit":"m.s-1","parameterCategory":1,"la1":30.2991,"la2":30.254,"lo1":-89.0895,"lo2":-89.0444,"dy":0.0017,"dx":0.0017,"nx":28,"ny":28,"refTime":"2024-02-14T03:00:00:Z","depth":0,"parameterNumber":3,"parameterNumberName":"V-component_of_WINDS"},"data":[0,0,0,0,0,0,0,0,0,0,0,0,0,0,0,0,0,0,0,0,0,0,0,0,0,0,0,0,0,0,0,0,0,0,0,0,0,0,0,0,0,0,0,0,0,0,0,0,0,0,0,0,0,0,0,0,0,0,1.5035,1.5034,0,1.4991,1.4991,1.499,1.5004,1.5005,1.5006,1.5007,1.4956,1.4954,1.4951,0,0,0,0,0,0,0,0,0,0,0,0,0,1.5124,1.5123,1.5035,1.5034,1.5034,1.4992,1.4991,1.499,1.5004,1.5005,1.5007,1.5008,1.4957,1.4954,1.4951,0,0,0,0,0,0,0,0,0,0,0,0,0,1.5083,1.5122,1.5035,1.5036,1.5036,1.4992,1.4991,1.499,1.5004,1.5005,1.5007,1.5008,1.4957,1.4954,1.4951,1.4901,0,0,1.494,1.4939,0,0,0,0,0,0,0,0,1.5086,1.508,1.5036,1.5036,1.5035,1.5005,1.5004,1.496,1.5004,1.5016,1.5007,1.5009,1.4971,1.4966,1.4955,1.4899,1.4897,1.494,1.4938,1.4937,1.4936,0,0,0,0,0,0,0,1.5088,1.5082,1.5018,1.5036,1.5035,1.5037,1.5032,1.4995,1.4985,1.5015,1.5016,1.5011,1.497,1.4958,1.4954,1.4896,1.494,1.4937,1.4935,1.4934,1.4796,1.4795,0,0,0,0,0,0,1.5092,1.5084,1.5019,1.5016,1.5065,1.5034,1.5029,1.5013,1.4986,1.4983,1.501,1.5012,1.4963,1.4957,1.4952,1.4891,1.4937,1.4933,1.4932,1.4798,1.4796,1.4794,0,0,0,0,0,0,1.5094,1.5087,1.5021,1.5051,1.5042,1.5031,1.5013,1.5012,1.4999,1.4982,1.498,1.4999,1.4964,1.4957,1.4914,1.4889,1.4932,1.4929,1.48,1.4797,1.4795,1.4769,0,0,0,0,0,0,1.5097,1.5087,1.507,1.505,1.5041,1.4985,1.5011,1.501,1.4994,1.4996,1.4971,1.4969,1.4964,1.4919,1.4911,1.4885,1.4926,1.4802,1.4799,1.4796,1.4772,1.4766,1.4761,0,0,0,0,0,1.51,1.5063,1.5069,1.5061,1.5019,1.4984,1.4978,1.4976,1.4992,1.4973,1.4962,1.4969,1.4894,1.4915,1.4905,1.4879,1.4803,1.4799,1.4796,1.4775,1.4767,1.4761,0,0,0,0,0,0,1.5077,1.506,1.5066,1.5022,1.5005,1.4986,1.4962,1.4969,1.4944,1.4947,1.4944,1.4938,1.4894,1.4882,1.4905,1.4829,1.4851,1.4845,1.4838,1.4831,1.4825,1.4828,1.4923,0,0,0,0,0,1.5067,1.5042,1.5028,1.4991,1.4982,1.4974,1.4958,1.4959,1.4939,1.4931,1.4917,1.4896,1.4868,1.4849,1.4822,1.4772,1.4765,1.4749,1.4743,1.4739,1.4733,1.4704,1.4696,1.4782,1.4782,1.4782,0,0,1.5046,1.5034,1.5018,1.4986,1.4972,1.4944,1.4967,1.4937,1.4915,1.4926,1.4885,1.4874,1.4851,1.4804,1.4782,1.4792,1.4708,1.4734,1.4731,1.4727,1.4699,1.4691,1.4684,1.478,1.478,1.478,0,0,1.4992,1.4982,1.4948,1.4935,1.4915,1.491,1.4902,1.4883,1.4877,1.4837,1.4844,1.4818,1.4769,1.4752,1.4737,1.4678,1.4683,1.4669,1.4639,1.4611,1.4604,1.4598,1.4575,1.4567,1.4664,1.4664,1.4664,0,1.4967,1.4928,1.493,1.4899,1.4884,1.4896,1.4861,1.4847,1.4818,1.4806,1.4819,1.4759,1.4744,1.4692,1.4678,1.4666,1.4655,1.4671,1.4606,1.4599,1.4594,1.4571,1.4563,1.4662,1.4663,1.4663,1.4663,0,1.4897,1.487,1.4845,1.4819,1.4802,1.4769,1.4765,1.4746,1.4748,1.4742,1.4699,1.4683,1.4652,1.464,1.4641,1.4588,1.4595,1.4607,1.4628,1.4584,1.4563,1.4554,1.466,1.4661,1.4661,1.4661,0,0,1.4825,1.4803,1.4794,1.4782,1.4761,1.4739,1.4706,1.4679,1.4662,1.4642,1.4613,1.4573,1.4584,1.4567,1.4566,1.4541,1.4494,1.4556,1.4555,1.4543,1.4432,1.4422,1.4412,1.4498,1.4497,1.4495,1.4434,0,1.4768,1.4713,1.4715,1.4662,1.4636,1.4647,1.4618,1.4601,1.4595,1.4569,1.4561,1.4532,1.455,1.4539,1.4516,1.4505,1.4471,1.4509,1.4468,1.4467,1.4471,1.4402,1.4391,1.4333,1.4426,1.4424,1.4423,0,1.4694,1.4674,1.462,1.4603,1.4592,1.4566,1.4541,1.4518,1.4499,1.4495,1.4477,1.448,1.4445,1.447,1.442,1.4446,1.443,1.4422,1.4419,1.4413,1.444,1.4391,1.4315,1.4305,1.4411,1.4412,1.4413,0,1.4644,1.4604,1.4566,1.4556,1.4536,1.4518,1.4508,1.4491,1.4474,1.4451,1.444,1.4413,1.4397,1.4375,1.437,1.4389,1.432,1.4345,1.4313,1.4313,1.4296,1.4296,1.4213,1.429,1.429,1.429,1.429,0,1.4579,1.4545,1.4544,1.452,1.4481,1.4483,1.4444,1.4436,1.4421,1.4394,1.4402,1.4376,1.4373,1.4346,1.4342,1.43,1.4293,1.4288,1.4286,1.4285,1.4286,1.4272,1.4275,1.4288,1.4288,1.4289,1.4289,0,1.4516,1.4514,1.4473,1.4459,1.4454,1.4426,1.4413,1.4389,1.4384,1.435,1.4342,1.4333,1.4302,1.4296,1.4258,1.4256,1.4205,1.4209,1.4212,1.4211,1.418,1.4182,1.4083,1.4069,1.4157,1.4156,1.4156,0,1.4473,1.4448,1.4431,1.4415,1.4405,1.4379,1.4362,1.4363,1.4345,1.4322,1.4301,1.4271,1.4247,1.4196,1.4184,1.4155,1.4157,1.4124,1.4152,1.4152,1.4153,1.4154,1.415,1.4118,1.4117,1.4116,1.4115,0,1.4397,1.4398,1.4375,1.4351,1.4332,1.4313,1.4295,1.4281,1.428,1.4259,1.4228,1.421,1.4173,1.4142,1.4113,1.4101,1.4106,1.4108,1.4098,1.4095,1.4097,1.4094,1.4195,1.4109,1.4109,1.411,1.411,1.4111,1.4341,1.4318,1.4303,1.4277,1.4265,1.4248,1.4225,1.4218,1.4193,1.4164,1.4166,1.4132,1.4112,1.4075,1.4061,1.4033,1.4043,1.403,1.4027,1.4023,1.4019,1.4105,1.4028,1.4028,1.4028,1.4029,1.4029,0,1.4263,1.4254,1.4231,1.4206,1.4186,1.4197,1.4178,1.4159,1.4129,1.4112,1.4089,1.4053,1.4024,1.4011,1.3981,1.3961,1.3963,1.3953,1.3953,1.3949,1.4013,1.4022,1.3952,1.3952,1.3952,1.3952,1.3952,1.3952,1.422,1.4181,1.418,1.4135,1.4126,1.4095,1.4082,1.4066,1.4053,1.4013,1.399,1.3983,1.3966,1.3936,1.3909,1.3906,1.3893,1.3881,1.3879,1.3938,1.3945,1.3953,1.3962,1.3879,1.3879,1.3818,1.3818,1.3817]}]]